Location: Iowa City
(41.6610°N, 91.5300°W)
Time: 10:54:38
(UTC-06:00)

ISS - Visible Passes

Search period start: 26 February 2017 00:00
Search period end: 08 March 2017 00:00
Orbit: 399 x 408 km, 51.6° (Epoch: 26 February)

Date Brightness Start Highest point End Pass type
(mag) Time Alt. Az. Time Alt. Az. Time Alt. Az.
28 Feb -0.5 05:56:13 10° S 05:58:34 18° SE 06:00:55 10° E visible
02 Mar -2.1 05:46:34 10° SSW 05:49:41 42° SE 05:52:50 10° ENE visible
03 Mar -1.1 04:55:39 16° S 04:57:15 22° SE 04:59:54 10° E visible
04 Mar -0.1 04:05:40 11° ESE 04:05:40 11° ESE 04:06:11 10° ESE visible
04 Mar -3.4 05:38:20 15° WSW 05:40:55 80° NNW 05:44:13 10° NE visible
05 Mar -2.8 04:48:10 52° SSE 04:48:20 53° SE 04:51:34 10° ENE visible
06 Mar -0.2 03:57:53 15° E 03:57:53 15° E 03:58:42 10° ENE visible
06 Mar -2.6 05:30:32 22° W 05:32:12 38° NNW 05:35:20 10° NE visible
07 Mar -2.7 04:40:08 51° NNE 04:40:08 51° NNE 04:42:48 10° NE visible
